Vorticity
11 13 5 12 8 10 7 7 6 10 12 9 5 10 2 0 5 3 7 11 10 2 4 5 5 3 5 7 8 11 12 10 10 12 11 4 4 5 6 6 4 7 4 4
4 6 11 6 5 6 7 6 6 16 7 2 14 9 0 2 2 9 18 9 7 7 2 6 8 12 14 14 13 11 11 10 9 8 10 14 11 5 8 11 11 10 9 7
7 -9 -17 14 19 10 12 5 4 -2 10 8 5 12 19 23 26 8 -11 11 18 20 -5 16 14 11 10 9 10 13 15 17 15 14 13 11 9 12 9 8 8 6 4 3
29 34 22 14 3 -2 4 0 8 14 17 7 5 -15 -12 8 8 10 14 12 7 0 19 10 7 8 9 9 7 6 4 3 2 2 2 2 3 3 3 2 5 2 0 4
-5 6 14 15 18 25 25 19 9 7 6 9 22 19 3 -4 -3 17 13 8 21 6 4 9 11 4 6 4 7 10 13 13 11 10 11 14 16 20 22 15 7 3 7 14
1 -10 -12 5 3 -3 -4 -16 5 10 7 41 27 7 33 22 0 -5 9 12 -2 8 14 10 9 13 9 7 8 4 7 13 8 10 13 20 10 10 11 8 12 15 13 11
20 19 17 15 8 2 8 8 15 24 22 -7 5 34 -20 -17 16 21 9 -2 11 20 12 9 -0 8 2 2 4 11 16 15 17 20 19 14 12 12 14 13 15 18 24 24
13 16 11 19 22 9 12 24 -22 9 6 -17 15 3 -25 -9 -4 -11 19 17 21 2 -2 9 9 5 8 9 11 18 19 20 22 24 23 20 21 21 21 27 33 28 20 16
7 15 20 5 4 -0 11 4 13 17 20 19 11 -8 -7 14 33 8 -5 11 -8 -6 15 4 0 5 3 17 17 18 24 21 19 19 18 15 19 25 28 25 27 25 20 21
16 10 10 2 1 -3 2 -3 13 9 8 6 9 -3 -25 27 32 23 11 4 -3 11 2 5 7 3 21 18 17 26 27 18 19 24 28 29 29 29 26 32 33 33 29 24
-5 -3 1 9 6 15 8 3 0 10 2 -1 24 -11 -31 -4 -1 11 -9 7 11 2 7 4 2 20 22 16 17 17 12 8 14 19 37 31 24 31 34 26 21 15 22 21
18 -3 19 15 13 12 7 7 8 -7 6 -8 3 -17 -30 2 24 26 -4 12 -3 12 7 2 15 20 13 16 5 3 11 7 8 3 26 35 14 12 12 10 9 11 11 18
10 12 15 31 28 15 5 10 10 9 16 -2 -15 -22 -25 -17 4 -14 7 -3 15 14 2 8 21 15 12 21 20 19 1 2 3 10 5 5 21 25 28 31 29 30 27 17
7 9 -17 -23 -32 -2 6 8 6 5 1 3 -3 -8 11 9 10 2 5 4 8 3 8 13 18 15 16 12 -13 -11 -4 6 -2 -9 -8 15 7 6 6 12 13 13 20 33
14 -3 10 11 5 6 6 5 5 1 6 4 -6 -2 14 9 13 22 13 12 9 10 9 19 16 28 12 -0 2 12 15 12 7 4 12 13 6 6 3 -1 -2 -0 9 8
10 14 6 -0 12 14 5 11 -4 12 19 17 21 12 33 29 15 32 25 14 12 13 12 18 16 1 -2 9 10 8 7 7 6 6 6 6 5 3 5 7 9 11 6 -2
-2 5 18 21 23 7 46 27 21 17 16 15 12 10 7 17 14 16 14 14 7 12 17 18 8 3 8 9 10 7 7 8 9 9 9 8 8 8 9 9 11 10 6 5
9 20 1 0 17 21 20 29 6 1 7 3 15 22 18 6 12 13 12 17 21 13 17 16 3 10 9 8 8 8 8 10 9 9 7 7 7 7 7 8 8 8 9 9
13 10 -14 3 4 -18 14 56 35 46 31 10 30 23 15 14 14 14 19 22 8 18 18 4 4 10 9 8 7 9 8 9 6 8 7 6 5 5 6 6 6 6 6 7
4 8 9 3 2 -2 -2 7 1 -4 12 4 9 9 13 12 15 20 21 12 20 15 15 -0 9 10 8 8 9 10 7 7 8 7 6 6 6 6 6 6 7 6 7 7
15 6 1 6 -5 14 4 22 21 36 -3 16 -2 17 12 17 16 12 17 16 13 22 -4 7 10 9 8 8 12 10 7 6 7 6 6 5 6 7 6 6 7 6 6 6
7 12 20 41 10 14 36 19 27 21 12 15 11 7 10 14 20 17 12 12 25 -1 4 11 9 8 9 10 11 9 5 6 7 6 6 7 6 6 6 6 7 7 7 7
8 -9 -13 -22 -28 -12 -23 -8 1 -0 1 7 4 9 5 14 20 12 12 20 13 -1 6 8 9 8 10 12 8 6 5 7 7 6 6 5 5 5 5 6 8 8 9 9
13 3 6 8 21 16 17 15 19 10 7 -0 7 6 6 14 18 6 14 20 -4 5 8 10 9 8 12 9 7 4 5 5 6 4 4 4 3 3 4 4 5 5 7 8
2 23 15 12 14 15 33 10 -2 0 7 11 16 13 12 11 17 6 13 10 6 6 9 10 8 9 12 7 5 5 5 5 5 5 4 4 4 4 5 5 6 6 7 7
29 27 14 8 14 8 4 7 13 6 8 12 17 19 14 12 17 9 10 11 10 8 9 9 8 10 10 6 5 6 5 5 5 4 4 4 4 4 5 5 5 5 8 8
Height
3104 3105 3106 3107 3106 3105 3104 3103 3103 3106 3109 3104 3106 3104 3102 3102 3101 3101 3101 3100 3099 3098 3096 3094 3092 3090 3088 3085 3083 3081 3079 3077 3075 3073 3073 3071 3069 3068 3067 3067 3066 3066 3064 3063
3100 3099 3103 3102 3101 3102 3102 3100 3100 3101 3104 3102 3101 3099 3097 3096 3096 3096 3095 3095 3093 3091 3089 3087 3084 3081 3079 3076 3073 3071 3069 3067 3064 3062 3060 3058 3056 3056 3055 3054 3053 3053 3052 3050
3094 3099 3098 3098 3097 3099 3098 3098 3099 3099 3098 3099 3096 3090 3091 3091 3090 3090 3090 3089 3087 3084 3082 3079 3077 3074 3071 3069 3066 3063 3060 3057 3055 3052 3048 3047 3044 3042 3040 3040 3039 3038 3037 3037
3089 3091 3092 3094 3095 3097 3096 3098 3097 3096 3095 3095 3095 3087 3084 3085 3085 3086 3084 3083 3082 3080 3076 3074 3071 3067 3064 3061 3057 3054 3051 3047 3044 3041 3037 3033 3029 3027 3025 3023 3023 3024 3021 3021
3087 3087 3088 3090 3092 3093 3095 3096 3096 3094 3093 3091 3091 3092 3074 3079 3080 3080 3080 3079 3077 3075 3072 3069 3066 3062 3058 3054 3049 3045 3040 3036 3031 3026 3022 3017 3013 3009 3006 3005 3004 3004 3005 3002
3081 3083 3086 3088 3089 3091 3093 3094 3094 3093 3092 3087 3085 3088 3071 3074 3076 3076 3076 3074 3072 3070 3067 3063 3061 3057 3052 3048 3041 3036 3030 3024 3019 3013 3007 3001 2995 2990 2987 2984 2982 2983 2985 2984
3078 3077 3079 3083 3085 3087 3088 3090 3091 3091 3089 3084 3081 3081 3073 3072 3071 3073 3071 3070 3067 3064 3062 3059 3055 3052 3047 3041 3035 3030 3022 3016 3008 3000 2994 2987 2981 2975 2971 2967 2965 2964 2965 2966
3076 3075 3074 3077 3080 3082 3082 3084 3086 3085 3085 3080 3079 3071 3067 3068 3067 3066 3065 3063 3062 3061 3058 3054 3049 3046 3041 3035 3029 3022 3015 3007 2999 2990 2984 2976 2969 2962 2957 2952 2949 2949 2949 2949
3072 3073 3073 3073 3076 3080 3080 3080 3081 3080 3078 3077 3070 3067 3064 3064 3062 3061 3060 3058 3057 3056 3053 3049 3045 3040 3035 3028 3021 3014 3007 2999 2992 2983 2974 2966 2958 2950 2944 2941 2938 2937 2937 2937
3068 3071 3072 3072 3074 3075 3076 3076 3077 3078 3078 3074 3064 3062 3057 3058 3058 3058 3057 3055 3053 3051 3047 3044 3039 3035 3028 3023 3016 3009 3002 2996 2988 2977 2965 2955 2948 2943 2938 2935 2933 2932 2931 2930
3064 3068 3069 3070 3070 3070 3072 3070 3071 3073 3072 3070 3065 3055 3054 3055 3054 3052 3051 3050 3047 3046 3042 3039 3035 3029 3025 3020 3015 3009 3003 2996 2987 2975 2962 2954 2947 2942 2938 2934 2933 2931 2930 2928
3062 3062 3062 3065 3065 3065 3067 3066 3067 3067 3066 3063 3062 3049 3046 3048 3047 3047 3047 3044 3043 3041 3038 3034 3030 3025 3022 3018 3014 3009 3003 2997 2989 2976 2966 2957 2950 2946 2939 2936 2934 2934 2931 2928
3060 3059 3059 3060 3063 3060 3059 3059 3060 3061 3061 3053 3059 3041 3043 3042 3043 3043 3041 3040 3038 3035 3033 3030 3026 3023 3020 3016 3012 3008 3004 2998 2991 2983 2973 2967 2958 2950 2944 2941 2938 2935 2932 2929
3054 3055 3056 3054 3055 3055 3054 3053 3055 3057 3055 3048 3036 3033 3035 3036 3037 3036 3035 3034 3032 3031 3028 3026 3023 3021 3019 3014 3011 3009 3005 3001 2994 2989 2983 2975 2966 2958 2954 2949 2944 2940 2936 2932
3050 3049 3051 3051 3050 3051 3048 3047 3049 3048 3042 3043 3025 3028 3023 3027 3028 3028 3027 3027 3027 3026 3024 3022 3020 3018 3017 3015 3012 3009 3006 3002 2997 2992 2988 2982 2975 2968 2963 2958 2955 2951 2945 2939
3046 3045 3045 3045 3047 3045 3041 3039 3040 3035 3032 3027 3025 3018 3021 3021 3019 3018 3019 3020 3021 3020 3019 3018 3017 3017 3016 3014 3012 3011 3007 3003 2999 2996 2991 2987 2980 2975 2970 2966 2961 2958 2954 2949
3042 3040 3040 3039 3042 3040 3033 3031 3029 3026 3024 3022 3019 3016 3015 3014 3013 3012 3013 3014 3014 3015 3015 3015 3015 3016 3015 3014 3012 3011 3008 3005 3002 2999 2996 2992 2986 2981 2976 2971 2968 2964 2961 2956
3035 3036 3038 3036 3037 3035 3025 3024 3023 3020 3018 3017 3014 3011 3010 3010 3009 3008 3007 3008 3009 3010 3011 3012 3013 3014 3014 3013 3012 3011 3009 3006 3004 3002 2999 2996 2991 2985 2981 2978 2974 2970 2966 2963
3030 3033 3034 3033 3032 3025 3021 3019 3017 3013 3012 3013 3009 3007 3006 3005 3004 3003 3003 3004 3006 3007 3009 3010 3011 3013 3013 3013 3012 3011 3009 3008 3006 3004 3002 2998 2994 2989 2986 2982 2978 2975 2971 2968
3025 3027 3030 3028 3029 3024 3017 3014 3012 3011 3009 3009 3007 3005 3004 3002 3001 3001 3000 3002 3003 3005 3007 3009 3010 3012 3012 3012 3012 3010 3009 3008 3008 3007 3004 3000 2996 2993 2989 2985 2981 2978 2975 2972
3019 3021 3021 3022 3022 3014 3010 3009 3008 3010 3010 3006 3004 3003 3001 3000 2999 2998 2998 2999 3001 3003 3006 3007 3009 3011 3012 3011 3011 3010 3010 3009 3009 3007 3005 3001 2997 2995 2991 2987 2985 2981 2978 2975
3012 3014 3014 3017 3018 3011 3005 3005 3006 3005 3003 3003 3002 3000 2999 2997 2996 2996 2996 2997 3000 3003 3005 3006 3007 3009 3010 3010 3010 3010 3010 3010 3009 3008 3006 3003 3000 2997 2994 2991 2988 2985 2982 2979
3006 3006 3007 3006 3002 3002 3001 3001 3002 3002 3001 3000 2999 2998 2996 2995 2994 2995 2995 2996 2999 3001 3002 3004 3006 3008 3009 3009 3009 3009 3010 3010 3009 3008 3006 3004 3001 2998 2997 2995 2992 2989 2985 2982
2997 2998 2997 2997 2993 2995 2996 2995 2996 2997 2997 2996 2995 2994 2994 2993 2992 2993 2994 2995 2998 2999 3001 3003 3004 3006 3007 3008 3009 3008 3008 3009 3009 3007 3006 3004 3002 2999 2997 2994 2992 2988 2985 2981
2993 2992 2990 2988 2989 2990 2989 2990 2991 2991 2991 2990 2989 2988 2989 2989 2989 2990 2992 2994 2996 2997 2999 3001 3002 3004 3005 3006 3007 3007 3007 3007 3007 3006 3006 3004 3003 3000 2997 2995 2991 2987 2985 2981
2983 2984 2984 2984 2985 2985 2985 2985 2985 2985 2985 2984 2983 2982 2983 2984 2985 2987 2988 2990 2992 2994 2996 2998 3000 3001 3003 3004 3005 3005 3005 3006 3006 3005 3004 3002 3000 2998 2995 2992 2988 2985 2982 2978